Terminal Aerodrome Forecast
Issued by NWS Wilmington, OH

Current Version | Previous Version | Graphics & Text | Print | Product List | Glossary On
Versions: 1 2 3 4 5 6 7 8 9 10 11 12 13 14 15 16 17 18 19 20 21 22 23 24
000
FTUS41 KILN 012300
TAFILN
TAF
KILN 012332Z 0200/0224 25005KT P6SM SCT040 BKN250
     FM020600 07004KT P6SM SCT050 SCT120 BKN250
     FM021300 09005KT P6SM SCT025 BKN050
     FM022300 06004KT P6SM BKN040=

USA.gov is the U.S. government's official web portal to all federal, state and local government web resources and services.